Location: Poughquag
(41.6090°N, 73.6820°W)
Time: 03:35:25
(UTC-04:00)

Transit 2A Rocket - Pass Details

Date: 05 June 2020
Orbit: 584 x 919 km, 66.7° (Epoch: 06 July)

Event Time Altitude Azimuth Distance (km) Brightness Sun altitude
Rises 06:40:44 0° 330° (NNW) 3,523 8.3 12.6°
Reaches altitude 10° 06:43:14 10° 331° (NNW) 2,600 7.7 13.0°
Maximum altitude 06:49:22 82° 59° (ENE) 933 5.9 14.1°
Drops below altitude 10° 06:55:27 10° 148° (SSE) 2,578 8.0 15.2°
Sets 06:57:55 0° 149° (SSE) 3,491 8.6 15.6°
